This is the latest recevied weather packets stored in our database for station/object N5PRN. If no packets are shown the sender has not sent any weather packets the latest 10 day(s).
| Time | Temp. | Humidity | Pressure | Rain* | Wind** | Luminosity | Snow |
|---|---|---|---|---|---|---|---|
| 1777613838 | 15.56° C | 96% | 1013.4 hPa | 0 mm | - | 0 W/m² | - |
| 1777613536 | 15.56° C | 96% | 1013.9 hPa | 0 mm | - | 0 W/m² | - |
| 1777613232 | 16.11° C | 96% | 1013.7 hPa | 1.78 mm | - | 0 W/m² | - |
| 1777612929 | 15.56° C | 96% | 1013.8 hPa | 1.78 mm | - | 0 W/m² | - |
| 1777612625 | 16.11° C | 96% | 1014.4 hPa | 0 mm | - | 0 W/m² | - |
| 1777612321 | 16.11° C | 96% | 1014.4 hPa | 0 mm | - | 0 W/m² | - |
| 1777612016 | 15.56° C | 96% | 1014.7 hPa | 1.27 mm | - | 0 W/m² | - |
| 1777611711 | 16.11° C | 96% | 1014.5 hPa | 1.27 mm | - | 0 W/m² | - |
| 1777611408 | 16.11° C | 96% | 1014.3 hPa | 0 mm | - | 0 W/m² | - |
| 1777611105 | 15.56° C | 96% | 1014.2 hPa | 0 mm | - | 0 W/m² | - |
| 1777610800 | 15.56° C | 96% | 1013.8 hPa | 0 mm | - | 0 W/m² | - |
| 1777610500 | 16.11° C | 96% | 1013.8 hPa | 0 mm | - | 0 W/m² | - |
| 1777610196 | 16.11° C | 96% | 1013.8 hPa | 0 mm | - | 0 W/m² | - |
| 1777609893 | 16.11° C | 96% | 1013.6 hPa | 0 mm | - | 0 W/m² | - |
| 1777609589 | 16.11° C | 96% | 1013.5 hPa | 0 mm | - | 0 W/m² | - |
| 1777609286 | 15.56° C | 96% | 1013.6 hPa | 1.78 mm | - | 0 W/m² | - |
| 1777608984 | 15.56° C | 96% | 1013.4 hPa | 1.78 mm | - | 0 W/m² | - |
| 1777608681 | 15.56° C | 96% | 1013.2 hPa | 1.27 mm | - | 0 W/m² | - |
| 1777608378 | 15.56° C | 96% | 1013.3 hPa | 1.27 mm | - | 0 W/m² | - |
| 1777608076 | 15.56° C | 96% | 1013.1 hPa | 1.78 mm | - | 0 W/m² | - |
| 1777607771 | 15.56° C | 96% | 1013 hPa | 1.78 mm | - | 0 W/m² | - |
| 1777607468 | 15.56° C | 96% | 1013.2 hPa | 1.27 mm | - | 0 W/m² | - |
| 1777607164 | 15.56° C | 96% | 1013 hPa | 1.27 mm | - | 0 W/m² | - |
| 1777606860 | 16.11° C | 96% | 1013.3 hPa | 0 mm | - | 0 W/m² | - |
| 1777606556 | 16.11° C | 96% | 1013.5 hPa | 0 mm | - | 0 W/m² | - |
* Rain latest hour (hover to see other rain measurements)
** Current wind speed in m/s (hover to see current wind gust speed)